Location: Zagreb
(45.8000°N, 16.0000°E)
Time: 22:24:11
(UTC+01:00)

Tiros 1 despin weight - Pass Details

Date: 27 January 2020
Orbit: 594 x 642 km, 48.2° (Epoch: 24 February)

Event Time Altitude Azimuth Distance (km) Brightness Sun altitude
Rises 12:53:33 0° 271° (W) 2,873 ? 24.9°
Reaches altitude 10° 12:55:51 10° 274° (W) 1,976 ? 24.8°
Maximum altitude 13:00:22 65° 356° (N) 689 ? 24.6°
Drops below altitude 10° 13:04:58 10° 79° (E) 2,008 ? 24.4°
Sets 13:07:20 0° 82° (E) 2,922 ? 24.3°
